Flag for Paraguay Weather past 2 weeks in Ciudad del Este, Paraguay

Now
61 °F

Sunny.


Feels Like: 61 °F
Forecast: 61 / 77 °F
Wind: 9 mph from East

Location: Foz Do Iguacu Aeroporto

Current Time: Jul 30, 2014 at 6:41:58 AM

Latest Report: Jul 30, 2014 at 6:00 AM


Visibility: 10 mi

Pressure: 30.18 "Hg

Humidity: 88%

Dew point: 57 °F

Location of Ciudad del EsteLocation

Historic Weather in Ciudad del Este — Graph

°F

Ciudad del Este temperature yesterday

Maximum temperature yesterday: 79 °F (at 1:00 PM)
Minimum temperature yesterday: 59 °F (at 4:00 AM)
Average temperature yesterday: 68 °F

Past Weeks' High & Low Weather Summary

 TemperatureHumidityPressure
High82 °F (Jul 15, 2:00 PM)100% (Jul 17, 1:00 PM)30.33 "Hg (Jul 17, 1:00 PM)
Low41 °F (Jul 19, 7:00 AM)36% (Jul 21, 2:00 PM)29.65 "Hg (Jul 23, 4:00 PM)
Average61 °F80%30.11 "Hg
* Reported Jul 15 5:00 AM — Jul 30 5:00 AM, Ciudad del Este, Weather by CustomWeather, © 2014

Note: Actual official high and low records may vary slightly from our data, if they occured in-between our weather recording intervals... More about our weather records

Advertising

Ciudad del Este weather history for previous 24 hours

 ConditionsComfort  
Time TempWeatherWind HumidityBarometerVisibility
5:00 AM
Jul 30
63 °FClear.9 mph83%30.15 "Hg10 mi
4:00 AM63 °FClear.8 mph83%30.15 "Hg10 mi
2:00 AM64 °FClear.9 mph83%30.18 "Hg10 mi
1:00 AM64 °FClear.13 mph83%30.18 "Hg10 mi
12:00 AM66 °FClear.12 mph78%30.18 "Hg10 mi
11:00 PM
Jul 29
68 °FClear.12 mph73%30.18 "Hg10 mi
10:00 PM68 °FClear.10 mph78%30.18 "Hg10 mi
9:00 PM70 °FClear.10 mph73%30.18 "Hg10 mi
8:00 PM72 °FClear.9 mph69%30.18 "Hg10 mi
7:00 PM73 °FClear.5 mph65%30.18 "Hg10 mi
6:00 PM72 °FClear.5 mph69%30.15 "Hg10 mi
5:00 PM75 °FClear.5 mph65%30.12 "Hg10 mi
4:00 PM79 °FSunny.8 mph54%30.12 "Hg10 mi
2:00 PM79 °FSunny.9 mph58%30.15 "Hg10 mi
1:00 PM79 °FSunny.12 mph54%30.18 "Hg10 mi
12:00 PM75 °FScattered clouds.8 mph61%30.21 "HgN/A
11:00 AM72 °FScattered clouds.8 mph65%30.24 "HgN/A
10:00 AM68 °FScattered clouds.7 mph69%30.27 "HgN/A
9:00 AM64 °FScattered clouds.8 mph78%30.27 "HgN/A
8:00 AM63 °FScattered clouds.12 mph77%30.24 "HgN/A
7:00 AM61 °FSunny.13 mph83%30.21 "Hg10 mi
6:00 AM59 °FSunny.12 mph88%30.21 "Hg10 mi
Weather by CustomWeather, © 2014

See weather overviewHow to use our weather pages